LHA296 LSZH-ESSA

Flight info

Callsign LHA296
Flight time 1h 59m
Altitude 41000
Route DEGES Z1 ETAGO DCT TIKNI N746 MAG DCT OKAGA DCT MIKNA N851 PELUP Z226 NILUG
Aircraft A359/M-SDE1E2FGIJ1RWYZE3/S

Departure

Time 2026-05-08 07:29
Airport Zürich Airport (LSZH)

Arrival

Time 2026-05-08 09:29
Airport Stockholm-Arlanda Airport (ESSA)
Time Latitude Longitude Altitude Speed Heading
2026-05-08 07:11 47.45340 8.55699 1413 ft 0 kts
2026-05-08 07:20 47.45335 8.55698 1413 ft 4 kts
2026-05-08 07:20 47.45309 8.55695 1415 ft 4 kts 343°
2026-05-08 07:20 47.45288 8.55706 1418 ft 4 kts 330°
2026-05-08 07:20 47.45268 8.55730 1413 ft 4 kts 298°
2026-05-08 07:21 47.45263 8.55753 1413 ft 0 kts 276°
2026-05-08 07:23 47.45265 8.55727 1413 ft 6 kts 276°
2026-05-08 07:23 47.45273 8.55625 1413 ft 12 kts 277°
2026-05-08 07:23 47.45301 8.55499 1415 ft 14 kts 296°
2026-05-08 07:23 47.45381 8.55382 1414 ft 18 kts 336°
2026-05-08 07:24 47.45502 8.55300 1411 ft 20 kts 335°
2026-05-08 07:24 47.45638 8.55207 1411 ft 22 kts 334°
2026-05-08 07:24 47.45787 8.55102 1409 ft 25 kts 334°
2026-05-08 07:24 47.45949 8.54991 1406 ft 27 kts 334°
2026-05-08 07:25 47.46124 8.54869 1405 ft 29 kts 335°
2026-05-08 07:25 47.46311 8.54740 1403 ft 26 kts 335°
2026-05-08 07:25 47.46561 8.54570 1406 ft 20 kts 335°
2026-05-08 07:26 47.46696 8.54478 1403 ft 23 kts 334°
2026-05-08 07:26 47.46854 8.54379 1385 ft 26 kts 336°
2026-05-08 07:26 47.47015 8.54270 1401 ft 26 kts 335°
2026-05-08 07:26 47.47177 8.54157 1403 ft 26 kts 334°
2026-05-08 07:27 47.47340 8.54041 1404 ft 26 kts 335°
2026-05-08 07:27 47.47484 8.53947 1407 ft 17 kts 336°
2026-05-08 07:27 47.47568 8.53889 1410 ft 12 kts 327°
2026-05-08 07:27 47.47608 8.53784 1412 ft 12 kts 276°
2026-05-08 07:28 47.47585 8.53666 1413 ft 12 kts 247°
2026-05-08 07:28 47.47549 8.53622 1408 ft 6 kts 184°
2026-05-08 07:28 47.47497 8.53644 1411 ft 10 kts 160°
2026-05-08 07:28 47.47383 8.53724 1406 ft 41 kts 154°
2026-05-08 07:29 47.46901 8.54059 1385 ft 109 kts 155°
2026-05-08 07:29 47.46036 8.54656 1409 ft 164 kts 154°
2026-05-08 07:29 47.45011 8.55458 2002 ft 166 kts 146°
2026-05-08 07:29 47.44442 8.56832 2729 ft 161 kts 95°
2026-05-08 07:30 47.44830 8.58314 3257 ft 167 kts 44°
2026-05-08 07:30 47.45972 8.58878 3463 ft 190 kts 355°
2026-05-08 07:30 47.47254 8.58619 4084 ft 178 kts
2026-05-08 07:30 47.48207 8.59525 4776 ft 159 kts 65°
2026-05-08 07:31 47.48207 8.61042 5163 ft 154 kts 112°
2026-05-08 07:31 47.48014 8.62695 5294 ft 174 kts 92°
2026-05-08 07:31 47.47858 8.64561 5477 ft 193 kts 102°
2026-05-08 07:31 47.47617 8.66622 5695 ft 213 kts 102°
2026-05-08 07:32 47.47349 8.68894 5867 ft 237 kts 101°
2026-05-08 07:32 47.47054 8.71400 6100 ft 258 kts 101°
2026-05-08 07:32 47.46740 8.74091 6505 ft 271 kts 101°
2026-05-08 07:32 47.46419 8.76837 7059 ft 277 kts 101°
2026-05-08 07:33 47.46087 8.79667 7664 ft 281 kts 101°
2026-05-08 07:33 47.45750 8.82543 8295 ft 285 kts 101°
2026-05-08 07:33 47.45408 8.85450 8945 ft 289 kts 101°
2026-05-08 07:33 47.45060 8.88394 9607 ft 293 kts 101°
2026-05-08 07:34 47.44707 8.91374 10237 ft 297 kts 101°
2026-05-08 07:34 47.44341 8.94447 10555 ft 312 kts 101°
2026-05-08 07:34 47.43953 8.97699 10787 ft 328 kts 101°
2026-05-08 07:34 47.43548 9.01093 11031 ft 343 kts 101°
2026-05-08 07:35 47.43127 9.04611 11430 ft 351 kts 101°
2026-05-08 07:35 47.42844 9.06967 11773 ft 354 kts 101°
2026-05-08 07:35 47.42413 9.10562 12325 ft 357 kts 101°
2026-05-08 07:35 47.41975 9.14196 12864 ft 360 kts 101°
2026-05-08 07:36 47.41641 9.17874 13396 ft 364 kts 92°
2026-05-08 07:36 47.41970 9.21580 13898 ft 367 kts 71°
2026-05-08 07:36 47.42950 9.25066 14381 ft 369 kts 63°
2026-05-08 07:36 47.44164 9.28429 14845 ft 373 kts 59°
2026-05-08 07:37 47.45474 9.31701 15314 ft 375 kts 58°
2026-05-08 07:37 47.46840 9.35015 15799 ft 378 kts 58°
2026-05-08 07:37 47.48414 9.38138 16278 ft 380 kts 46°
2026-05-08 07:37 47.50467 9.40596 16733 ft 381 kts 28°
2026-05-08 07:38 47.52846 9.42324 17202 ft 382 kts 21°
2026-05-08 07:38 47.55340 9.43740 17660 ft 385 kts 18°
2026-05-08 07:38 47.57917 9.44852 18110 ft 386 kts
2026-05-08 07:38 47.60589 9.45318 18542 ft 388 kts
2026-05-08 07:39 47.63294 9.45554 18943 ft 390 kts
2026-05-08 07:39 47.66005 9.45688 19381 ft 391 kts 359°
2026-05-08 07:39 47.68737 9.45785 19779 ft 394 kts 359°
2026-05-08 07:39 47.71488 9.45882 20169 ft 397 kts 359°
2026-05-08 07:40 47.74271 9.45995 20562 ft 400 kts 359°
2026-05-08 07:40 47.77056 9.46123 20941 ft 403 kts 359°
2026-05-08 07:40 47.79867 9.46264 21332 ft 405 kts 360°
2026-05-08 07:40 47.82664 9.46375 21709 ft 407 kts 358°
2026-05-08 07:41 47.85505 9.46390 22138 ft 409 kts 357°
2026-05-08 07:41 47.88359 9.46358 22539 ft 411 kts 357°
2026-05-08 07:41 47.91227 9.46314 22906 ft 414 kts 357°
2026-05-08 07:41 47.94119 9.46275 23253 ft 416 kts 357°
2026-05-08 07:42 47.97033 9.46247 23623 ft 419 kts 357°
2026-05-08 07:42 47.99956 9.46228 23924 ft 421 kts 357°
2026-05-08 07:42 48.02903 9.46217 24230 ft 424 kts 357°
2026-05-08 07:42 48.05852 9.46210 24553 ft 425 kts 357°
2026-05-08 07:43 48.08812 9.46206 24923 ft 426 kts 357°
2026-05-08 07:43 48.11784 9.46200 25229 ft 428 kts 357°
2026-05-08 07:43 48.14771 9.46194 25541 ft 431 kts 357°
2026-05-08 07:43 48.17742 9.46188 25851 ft 433 kts 357°
2026-05-08 07:44 48.20761 9.46187 26175 ft 435 kts 357°
2026-05-08 07:44 48.23799 9.46190 26516 ft 437 kts 357°
2026-05-08 07:44 48.26858 9.46195 26873 ft 440 kts 357°
2026-05-08 07:44 48.29931 9.46199 27276 ft 441 kts 357°
2026-05-08 07:45 48.33012 9.46203 27640 ft 444 kts 357°
2026-05-08 07:45 48.36109 9.46206 28003 ft 447 kts 357°
2026-05-08 07:45 48.39236 9.46208 28375 ft 450 kts 357°
2026-05-08 07:45 48.42370 9.46210 28759 ft 453 kts 357°
2026-05-08 07:46 48.45537 9.46212 29137 ft 455 kts 357°
2026-05-08 07:46 48.48716 9.46215 29531 ft 458 kts 357°
2026-05-08 07:46 48.51915 9.46218 29906 ft 461 kts 357°
2026-05-08 07:46 48.55134 9.46217 30259 ft 464 kts 357°
2026-05-08 07:47 48.58375 9.46191 30572 ft 467 kts 357°
2026-05-08 07:47 48.61589 9.46151 30903 ft 470 kts 356°
2026-05-08 07:47 48.64870 9.46104 31221 ft 472 kts 357°
2026-05-08 07:47 48.68172 9.46058 31549 ft 475 kts 357°
2026-05-08 07:48 48.71484 9.46065 31876 ft 479 kts 360°
2026-05-08 07:48 48.74820 9.46561 32180 ft 483 kts
2026-05-08 07:48 48.78157 9.47256 32479 ft 485 kts
2026-05-08 07:48 48.81509 9.48021 32772 ft 488 kts
2026-05-08 07:49 48.84876 9.48825 33052 ft 490 kts
2026-05-08 07:49 48.88251 9.49646 33342 ft 493 kts
2026-05-08 07:49 48.91645 9.50473 33639 ft 495 kts
2026-05-08 07:49 48.95052 9.51302 33950 ft 496 kts
2026-05-08 07:50 48.98471 9.52128 34204 ft 499 kts
2026-05-08 07:50 49.01906 9.52955 34435 ft 501 kts
2026-05-08 07:50 49.05339 9.53780 34735 ft 500 kts
2026-05-08 07:50 49.08788 9.54610 35065 ft 500 kts
2026-05-08 07:51 49.12217 9.55437 35360 ft 500 kts
2026-05-08 07:51 49.15649 9.56265 35684 ft 499 kts
2026-05-08 07:51 49.19088 9.57097 35992 ft 499 kts
2026-05-08 07:51 49.22476 9.57916 36250 ft 500 kts
2026-05-08 07:52 49.25919 9.58750 36519 ft 500 kts
2026-05-08 07:52 49.29359 9.59584 36792 ft 500 kts
2026-05-08 07:52 49.32806 9.60422 37078 ft 501 kts
2026-05-08 07:52 49.36247 9.61260 37371 ft 500 kts
2026-05-08 07:53 49.39683 9.62097 37692 ft 499 kts
2026-05-08 07:53 49.43117 9.62935 37969 ft 500 kts
2026-05-08 07:53 49.46553 9.63774 38204 ft 500 kts
2026-05-08 07:53 49.49991 9.64613 38452 ft 500 kts
2026-05-08 07:54 49.53430 9.65455 38687 ft 500 kts
2026-05-08 07:54 49.56880 9.66302 38902 ft 501 kts
2026-05-08 07:54 49.60274 9.67137 39096 ft 500 kts
2026-05-08 07:54 49.63719 9.67986 39304 ft 500 kts
2026-05-08 07:55 49.67156 9.68834 39480 ft 500 kts
2026-05-08 07:55 49.70598 9.69684 39648 ft 500 kts
2026-05-08 07:55 49.74045 9.70536 39797 ft 501 kts
2026-05-08 07:55 49.77486 9.71388 39956 ft 501 kts
2026-05-08 07:56 49.80926 9.72241 40113 ft 501 kts
2026-05-08 07:56 49.84367 9.73095 40257 ft 501 kts
2026-05-08 07:56 49.87802 9.73949 40392 ft 501 kts
2026-05-08 07:56 49.91245 9.74806 40521 ft 501 kts
2026-05-08 07:57 49.94688 9.75665 40668 ft 501 kts
2026-05-08 07:57 49.98132 9.76526 40798 ft 501 kts
2026-05-08 07:57 50.01575 9.77387 40959 ft 501 kts
2026-05-08 07:57 50.05024 9.78250 41077 ft 501 kts
2026-05-08 07:58 50.08431 9.79104 41105 ft 504 kts
2026-05-08 07:58 50.15370 9.80847 41104 ft 504 kts
2026-05-08 07:59 50.22298 9.82594 41121 ft 504 kts
2026-05-08 07:59 50.29227 9.84345 41127 ft 503 kts
2026-05-08 08:00 50.36134 9.86131 41123 ft 503 kts
2026-05-08 08:00 50.42706 9.89780 41125 ft 508 kts 27°
2026-05-08 08:01 50.48619 9.95885 41111 ft 510 kts 34°
2026-05-08 08:01 50.54353 10.02449 41132 ft 510 kts 35°
2026-05-08 08:02 50.60067 10.09087 41126 ft 510 kts 35°
2026-05-08 08:02 50.65785 10.15701 41115 ft 510 kts 35°
2026-05-08 08:03 50.71508 10.22309 41135 ft 510 kts 35°
2026-05-08 08:03 50.77235 10.28932 41118 ft 510 kts 35°
2026-05-08 08:04 50.82925 10.35534 41119 ft 510 kts 35°
2026-05-08 08:04 50.88641 10.42188 41119 ft 510 kts 35°
2026-05-08 08:05 50.94376 10.48797 41143 ft 510 kts 34°
2026-05-08 08:05 51.00160 10.55298 41148 ft 509 kts 34°
2026-05-08 08:06 51.05943 10.61813 41136 ft 509 kts 34°
2026-05-08 08:06 51.11721 10.68372 41145 ft 510 kts 34°
2026-05-08 08:07 51.17486 10.74953 41144 ft 510 kts 34°
2026-05-08 08:07 51.23250 10.81546 41143 ft 510 kts 34°
2026-05-08 08:08 51.28977 10.88128 41141 ft 510 kts 34°
2026-05-08 08:08 51.34727 10.94756 41140 ft 510 kts 34°
2026-05-08 08:09 51.40496 11.01425 41145 ft 510 kts 34°
2026-05-08 08:09 51.46242 11.08087 41146 ft 510 kts 34°
2026-05-08 08:10 51.51945 11.14721 41160 ft 510 kts 34°
2026-05-08 08:10 51.57689 11.21422 41153 ft 509 kts 34°
2026-05-08 08:11 51.63412 11.28145 41167 ft 510 kts 36°
2026-05-08 08:11 51.68834 11.35538 41177 ft 510 kts 41°
2026-05-08 08:12 51.74097 11.43231 41188 ft 510 kts 41°
2026-05-08 08:12 51.79394 11.50862 41183 ft 510 kts 40°
2026-05-08 08:13 51.84696 11.58385 41183 ft 510 kts 40°
2026-05-08 08:13 51.90044 11.65954 41182 ft 510 kts 40°
2026-05-08 08:14 51.95390 11.73546 41181 ft 510 kts 40°
2026-05-08 08:14 52.01167 11.80118 41175 ft 506 kts 24°
2026-05-08 08:15 52.07632 11.84614 41172 ft 505 kts 20°
2026-05-08 08:15 52.14169 11.88725 41172 ft 506 kts 19°
2026-05-08 08:16 52.20741 11.92812 41173 ft 506 kts 19°
2026-05-08 08:16 52.27307 11.96943 41174 ft 506 kts 19°
2026-05-08 08:17 52.33868 12.01109 41169 ft 506 kts 20°
2026-05-08 08:17 52.40432 12.05296 41188 ft 506 kts 20°
2026-05-08 08:18 52.46986 12.09489 41178 ft 506 kts 20°
2026-05-08 08:18 52.53502 12.13671 41179 ft 505 kts 20°
2026-05-08 08:19 52.60055 12.17889 41176 ft 505 kts 20°
2026-05-08 08:19 52.66613 12.22124 41182 ft 506 kts 20°
2026-05-08 08:20 52.73162 12.26367 41185 ft 506 kts 20°
2026-05-08 08:20 52.79718 12.30628 41186 ft 506 kts 20°
2026-05-08 08:21 52.86266 12.34897 41182 ft 506 kts 20°
2026-05-08 08:21 52.92770 12.39152 41186 ft 506 kts 20°
2026-05-08 08:22 52.99313 12.43447 41186 ft 506 kts 20°
2026-05-08 08:22 53.05862 12.47760 41178 ft 506 kts 20°
2026-05-08 08:23 53.12396 12.52075 41187 ft 506 kts 20°
2026-05-08 08:23 53.17833 12.55678 41182 ft 506 kts 20°
2026-05-08 08:24 53.24386 12.60033 41191 ft 506 kts 20°
2026-05-08 08:24 53.30914 12.64387 41195 ft 506 kts 20°
2026-05-08 08:25 53.37449 12.68758 41193 ft 505 kts 20°
2026-05-08 08:25 53.43986 12.73147 41192 ft 505 kts 20°
2026-05-08 08:26 53.50516 12.77544 41196 ft 506 kts 20°
2026-05-08 08:26 53.57007 12.81931 41204 ft 506 kts 21°
2026-05-08 08:27 53.63531 12.86354 41203 ft 505 kts 21°
2026-05-08 08:27 53.70060 12.90796 41205 ft 505 kts 21°
2026-05-08 08:28 53.76580 12.95245 41209 ft 505 kts 21°
2026-05-08 08:28 53.83099 12.99709 41211 ft 505 kts 21°
2026-05-08 08:29 53.89617 13.04188 41213 ft 505 kts 21°
2026-05-08 08:29 53.96132 13.08680 41219 ft 505 kts 21°
2026-05-08 08:30 54.02610 13.13161 41221 ft 505 kts 21°
2026-05-08 08:30 54.12383 13.19951 41227 ft 506 kts 21°
2026-05-08 08:31 54.18901 13.24498 41233 ft 506 kts 21°
2026-05-08 08:31 54.25430 13.29069 41246 ft 506 kts 21°
2026-05-08 08:32 54.31942 13.33644 41244 ft 505 kts 21°
2026-05-08 08:32 54.38446 13.38228 41249 ft 505 kts 21°
2026-05-08 08:33 54.44954 13.42831 41258 ft 505 kts 21°
2026-05-08 08:33 54.51453 13.47443 41270 ft 505 kts 21°
2026-05-08 08:34 54.57918 13.52048 41263 ft 505 kts 21°
2026-05-08 08:34 54.64413 13.56690 41265 ft 505 kts 21°
2026-05-08 08:35 54.70905 13.61346 41268 ft 505 kts 21°
2026-05-08 08:35 54.77385 13.66038 41267 ft 505 kts 23°
2026-05-08 08:36 54.83677 13.71500 41271 ft 505 kts 27°
2026-05-08 08:36 54.89847 13.77214 41271 ft 505 kts 27°
2026-05-08 08:37 54.96043 13.83031 41271 ft 505 kts 27°
2026-05-08 08:37 55.02233 13.88842 41275 ft 505 kts 27°
2026-05-08 08:38 55.08428 13.94659 41273 ft 506 kts 27°
2026-05-08 08:38 55.14627 14.00498 41273 ft 506 kts 27°
2026-05-08 08:39 55.20786 14.06319 41279 ft 506 kts 28°
2026-05-08 08:39 55.26976 14.12190 41279 ft 506 kts 28°
2026-05-08 08:40 55.33155 14.18072 41284 ft 506 kts 28°
2026-05-08 08:40 55.39338 14.23978 41284 ft 506 kts 28°
2026-05-08 08:41 55.45518 14.29904 41281 ft 506 kts 28°
2026-05-08 08:41 55.51703 14.35854 41290 ft 506 kts 28°
2026-05-08 08:42 55.57880 14.41819 41295 ft 506 kts 28°
2026-05-08 08:42 55.64062 14.47811 41292 ft 506 kts 28°
2026-05-08 08:43 55.70235 14.53816 41295 ft 506 kts 28°
2026-05-08 08:43 55.76363 14.59797 41297 ft 506 kts 28°
2026-05-08 08:44 55.82525 14.65835 41297 ft 506 kts 28°
2026-05-08 08:44 55.88691 14.71898 41297 ft 506 kts 28°
2026-05-08 08:45 55.94854 14.77981 41297 ft 506 kts 28°
2026-05-08 08:45 56.01004 14.84073 41301 ft 505 kts 28°
2026-05-08 08:46 56.07146 14.90179 41300 ft 505 kts 28°
2026-05-08 08:46 56.13251 14.96271 41300 ft 505 kts 28°
2026-05-08 08:47 56.19389 15.02419 41306 ft 505 kts 28°
2026-05-08 08:47 56.25544 15.08607 41292 ft 506 kts 28°
2026-05-08 08:48 56.31687 15.14805 41292 ft 506 kts 29°
2026-05-08 08:48 56.37834 15.21031 41293 ft 506 kts 29°
2026-05-08 08:49 56.43971 15.27270 41298 ft 506 kts 29°
2026-05-08 08:49 56.50099 15.33523 41300 ft 506 kts 29°
2026-05-08 08:50 56.56233 15.39804 41307 ft 506 kts 29°
2026-05-08 08:50 56.62328 15.46071 41312 ft 506 kts 29°
2026-05-08 08:51 56.68454 15.52392 41315 ft 506 kts 29°
2026-05-08 08:51 56.74585 15.58743 41319 ft 506 kts 29°
2026-05-08 08:52 56.80700 15.65102 41318 ft 506 kts 29°
2026-05-08 08:52 56.86815 15.71484 41322 ft 506 kts 29°
2026-05-08 08:53 56.92929 15.77889 41332 ft 506 kts 29°
2026-05-08 08:53 56.99036 15.84312 41327 ft 505 kts 29°
2026-05-08 08:54 57.05096 15.90710 41333 ft 505 kts 29°
2026-05-08 08:54 57.11193 15.97171 41333 ft 505 kts 29°
2026-05-08 08:55 57.17280 16.03647 41335 ft 505 kts 29°
2026-05-08 08:55 57.23354 16.10133 41341 ft 504 kts 30°
2026-05-08 08:56 57.29432 16.16648 41342 ft 504 kts 30°
2026-05-08 08:56 57.35506 16.23186 41345 ft 504 kts 30°
2026-05-08 08:57 57.41570 16.29737 41345 ft 504 kts 30°
2026-05-08 08:57 57.47625 16.36303 41352 ft 503 kts 30°
2026-05-08 08:58 57.53631 16.42842 41357 ft 503 kts 30°
2026-05-08 08:58 57.59672 16.49445 41168 ft 502 kts 30°
2026-05-08 08:59 57.62681 16.52743 40924 ft 501 kts 30°
2026-05-08 08:59 57.65691 16.56049 40693 ft 501 kts 30°
2026-05-08 08:59 57.68691 16.59351 40450 ft 500 kts 30°
2026-05-08 08:59 57.71677 16.62643 39924 ft 499 kts 30°
2026-05-08 09:00 57.74673 16.65951 39306 ft 499 kts 30°
2026-05-08 09:00 57.77662 16.69260 38579 ft 499 kts 31°
2026-05-08 09:00 57.80650 16.72572 37901 ft 496 kts 31°
2026-05-08 09:00 57.83580 16.75828 37260 ft 494 kts 31°
2026-05-08 09:01 57.86526 16.79107 36589 ft 491 kts 32°
2026-05-08 09:01 57.89456 16.82373 35908 ft 488 kts 32°
2026-05-08 09:01 57.92371 16.85631 35223 ft 486 kts 32°
2026-05-08 09:01 57.95277 16.88886 34461 ft 486 kts 32°
2026-05-08 09:02 57.98172 16.92134 33809 ft 481 kts 32°
2026-05-08 09:02 58.01032 16.95348 33306 ft 474 kts 32°
2026-05-08 09:02 58.03845 16.98516 32766 ft 468 kts 32°
2026-05-08 09:02 58.06621 17.01648 32266 ft 462 kts 32°
2026-05-08 09:03 58.09364 17.04750 31743 ft 457 kts 32°
2026-05-08 09:03 58.12078 17.07823 31224 ft 452 kts 32°
2026-05-08 09:03 58.14763 17.10868 30732 ft 448 kts 32°
2026-05-08 09:03 58.17425 17.13895 30194 ft 443 kts 32°
2026-05-08 09:04 58.20053 17.16886 29693 ft 438 kts 32°
2026-05-08 09:04 58.22647 17.19844 29208 ft 432 kts 32°
2026-05-08 09:04 58.25203 17.22764 28712 ft 427 kts 32°
2026-05-08 09:04 58.27735 17.25660 28235 ft 422 kts 32°
2026-05-08 09:05 58.30209 17.28496 27775 ft 418 kts 32°
2026-05-08 09:05 58.32683 17.31336 27301 ft 413 kts 32°
2026-05-08 09:05 58.35137 17.34158 26831 ft 409 kts 32°
2026-05-08 09:05 58.37563 17.36952 26355 ft 406 kts 32°
2026-05-08 09:06 58.39968 17.39726 25900 ft 402 kts 32°
2026-05-08 09:06 58.42353 17.42484 25427 ft 400 kts 32°
2026-05-08 09:06 58.44732 17.45177 25105 ft 393 kts 29°
2026-05-08 09:06 58.47236 17.47331 25032 ft 404 kts 22°
2026-05-08 09:07 58.49931 17.49258 24941 ft 418 kts 20°
2026-05-08 09:07 58.52678 17.51138 24700 ft 420 kts 20°
2026-05-08 09:07 58.55435 17.53000 24462 ft 418 kts 20°
2026-05-08 09:07 58.58171 17.54840 24227 ft 417 kts 20°
2026-05-08 09:08 58.60912 17.56681 23993 ft 416 kts 20°
2026-05-08 09:08 58.63601 17.58488 23734 ft 414 kts 20°
2026-05-08 09:08 58.66316 17.60314 23467 ft 413 kts 20°
2026-05-08 09:08 58.69019 17.62136 23182 ft 411 kts 19°
2026-05-08 09:09 58.71708 17.63950 22903 ft 408 kts 19°
2026-05-08 09:09 58.74385 17.65758 22637 ft 407 kts 19°
2026-05-08 09:09 58.77050 17.67560 22369 ft 405 kts 19°
2026-05-08 09:09 58.79702 17.69358 22094 ft 403 kts 19°
2026-05-08 09:10 58.81491 17.70571 21925 ft 402 kts 19°
2026-05-08 09:10 58.84090 17.72337 21667 ft 400 kts 19°
2026-05-08 09:10 58.86713 17.74122 21409 ft 399 kts 19°
2026-05-08 09:10 58.89326 17.75903 21151 ft 397 kts 19°
2026-05-08 09:11 58.91928 17.77679 20893 ft 396 kts 19°
2026-05-08 09:11 58.94516 17.79449 20611 ft 390 kts 19°
2026-05-08 09:11 58.97058 17.81189 20188 ft 385 kts 18°
2026-05-08 09:11 58.99574 17.82915 19691 ft 382 kts 18°
2026-05-08 09:12 59.02070 17.84630 19227 ft 379 kts 18°
2026-05-08 09:12 59.04550 17.86335 18748 ft 377 kts 18°
2026-05-08 09:12 59.07013 17.88032 18222 ft 374 kts 18°
2026-05-08 09:12 59.09461 17.89722 17750 ft 371 kts 18°
2026-05-08 09:13 59.11879 17.91392 17271 ft 367 kts 18°
2026-05-08 09:13 59.14273 17.93051 16810 ft 364 kts 18°
2026-05-08 09:13 59.16689 17.94724 16393 ft 375 kts 18°
2026-05-08 09:13 59.19143 17.96424 15902 ft 381 kts 18°
2026-05-08 09:14 59.21633 17.98156 15377 ft 378 kts 18°
2026-05-08 09:14 59.24100 17.99876 14885 ft 375 kts 18°
2026-05-08 09:14 59.26553 18.01587 14410 ft 372 kts 18°
2026-05-08 09:14 59.28986 18.03288 13895 ft 370 kts 18°
2026-05-08 09:15 59.31398 18.04974 13408 ft 367 kts 18°
2026-05-08 09:15 59.33795 18.06654 12940 ft 364 kts 18°
2026-05-08 09:15 59.36165 18.08319 12457 ft 360 kts 18°
2026-05-08 09:15 59.38516 18.09969 12003 ft 356 kts 18°
2026-05-08 09:16 59.40841 18.11602 11545 ft 353 kts 18°
2026-05-08 09:16 59.43141 18.13225 11055 ft 349 kts 18°
2026-05-08 09:16 59.45414 18.14829 10764 ft 346 kts 19°
2026-05-08 09:16 59.47685 18.16433 10637 ft 345 kts 18°
2026-05-08 09:17 59.49884 18.17995 10537 ft 333 kts 18°
2026-05-08 09:17 59.52035 18.19519 10381 ft 317 kts 18°
2026-05-08 09:17 59.54087 18.20658 10217 ft 303 kts 10°
2026-05-08 09:17 59.56114 18.21433 10028 ft 291 kts
2026-05-08 09:18 59.58081 18.22134 9686 ft 285 kts
2026-05-08 09:18 59.60011 18.22821 9075 ft 280 kts
2026-05-08 09:18 59.61917 18.23503 8484 ft 275 kts 10°
2026-05-08 09:18 59.63801 18.24187 8159 ft 274 kts 10°
2026-05-08 09:19 59.65668 18.24868 7818 ft 272 kts 10°
2026-05-08 09:19 59.67529 18.25548 7392 ft 271 kts 11°
2026-05-08 09:19 59.69382 18.26227 7005 ft 270 kts 11°
2026-05-08 09:19 59.71223 18.26901 6605 ft 268 kts 12°
2026-05-08 09:20 59.73053 18.27579 6165 ft 267 kts 12°
2026-05-08 09:20 59.74872 18.28245 5721 ft 263 kts 11°
2026-05-08 09:20 59.76664 18.28899 5041 ft 261 kts 11°
2026-05-08 09:20 59.78415 18.29545 4577 ft 250 kts 10°
2026-05-08 09:21 59.80098 18.30163 4070 ft 243 kts 11°
2026-05-08 09:21 59.81751 18.30766 3564 ft 238 kts 10°
2026-05-08 09:22 59.86331 18.17270 2504 ft 212 kts 277°
2026-05-08 09:23 59.86499 18.14393 2522 ft 208 kts 268°
2026-05-08 09:23 59.86205 18.11608 2491 ft 205 kts 250°
2026-05-08 09:23 59.85659 18.08978 2485 ft 205 kts 243°
2026-05-08 09:23 59.84896 18.06583 2483 ft 204 kts 229°
2026-05-08 09:24 59.83994 18.04394 2503 ft 204 kts 227°
2026-05-08 09:24 59.82944 18.02606 2487 ft 197 kts 205°
2026-05-08 09:24 59.81642 18.01851 2496 ft 190 kts 187°
2026-05-08 09:24 59.80398 18.01495 2510 ft 174 kts 186°
2026-05-08 09:25 59.79230 18.01115 2493 ft 171 kts 187°
2026-05-08 09:25 59.78039 18.00671 2503 ft 178 kts 187°
2026-05-08 09:25 59.76799 18.00215 2474 ft 180 kts 187°
2026-05-08 09:25 59.75618 17.99779 2349 ft 170 kts 187°
2026-05-08 09:26 59.74474 17.99370 2125 ft 165 kts 187°
2026-05-08 09:26 59.73377 17.98969 1885 ft 153 kts 187°
2026-05-08 09:26 59.72364 17.98600 1699 ft 144 kts 186°
2026-05-08 09:26 59.71402 17.98251 1472 ft 135 kts 186°
2026-05-08 09:27 59.70505 17.97924 1301 ft 128 kts 184°
2026-05-08 09:27 59.69624 17.97606 1118 ft 128 kts 186°
2026-05-08 09:27 59.68742 17.97284 941 ft 128 kts 186°
2026-05-08 09:27 59.67869 17.96970 808 ft 128 kts 186°
2026-05-08 09:28 59.66990 17.96671 589 ft 128 kts 188°
2026-05-08 09:28 59.66122 17.96342 378 ft 126 kts 190°
2026-05-08 09:28 59.65265 17.96035 229 ft 126 kts 188°
2026-05-08 09:28 59.64399 17.95723 116 ft 121 kts 191°
2026-05-08 09:29 59.63794 17.95495 119 ft 48 kts 190°
2026-05-08 09:29 59.63521 17.95383 125 ft 34 kts 198°
2026-05-08 09:29 59.63330 17.95180 125 ft 30 kts 219°
2026-05-08 09:29 59.63251 17.95017 124 ft 9 kts 254°
2026-05-08 09:30 59.63272 17.94956 125 ft 7 kts 322°
2026-05-08 09:30 59.63320 17.94926 125 ft 9 kts 359°
2026-05-08 09:30 59.63400 17.94943 125 ft 14 kts
2026-05-08 09:30 59.63514 17.94988 120 ft 20 kts 12°
2026-05-08 09:31 59.63665 17.95043 115 ft 24 kts
2026-05-08 09:31 59.63847 17.95106 114 ft 28 kts 10°
2026-05-08 09:31 59.64017 17.95169 112 ft 26 kts 10°
2026-05-08 09:31 59.64206 17.95237 111 ft 29 kts
2026-05-08 09:32 59.64412 17.95312 111 ft 26 kts 11°
2026-05-08 09:32 59.64599 17.95380 108 ft 29 kts 11°
2026-05-08 09:32 59.64800 17.95455 110 ft 30 kts 11°
2026-05-08 09:32 59.65007 17.95510 117 ft 29 kts 359°
2026-05-08 09:33 59.65200 17.95431 123 ft 28 kts 345°
2026-05-08 09:33 59.65385 17.95337 135 ft 27 kts 345°
2026-05-08 09:33 59.65574 17.95236 135 ft 29 kts 345°
2026-05-08 09:33 59.65713 17.95155 135 ft 18 kts 331°
2026-05-08 09:34 59.65738 17.94937 130 ft 19 kts 254°
2026-05-08 09:34 59.65704 17.94665 128 ft 21 kts 257°
2026-05-08 09:34 59.65669 17.94389 126 ft 21 kts 255°
2026-05-08 09:34 59.65632 17.94094 123 ft 24 kts 256°
2026-05-08 09:35 59.65586 17.93730 115 ft 30 kts 256°
2026-05-08 09:35 59.65554 17.93464 117 ft 18 kts 256°
2026-05-08 09:35 59.65532 17.93291 115 ft 7 kts 256°
2026-05-08 09:35 59.65506 17.93210 114 ft 7 kts 216°
2026-05-08 09:36 59.65459 17.93215 114 ft 7 kts 143°
2026-05-08 09:36 59.65410 17.93252 114 ft 9 kts 162°
2026-05-08 09:36 59.65344 17.93290 116 ft 11 kts 165°
2026-05-08 09:36 59.65296 17.93254 113 ft 7 kts 249°
2026-05-08 09:37 59.65289 17.93207 114 ft 2 kts 252°
2026-05-08 09:37 59.65288 17.93201 114 ft 0 kts 252°